Location: Home
(40.5300°N, 105.0300°W)
Time: 12:40:07
(UTC-07:00)

STARLINK-2712 - Pass Details

Date: 01 November 2021
Orbit: 546 x 548 km, 53.1° (Epoch: 01 December)

Event Time Altitude Azimuth Distance (km) Brightness Sun altitude
Exits shadow 05:42:29 21° 349° (N) 1,244 5.3 -21.0°
Drops below altitude 10° 05:45:18 10° 31° (NNE) 1,817 6.6 -20.4°
Sets 05:47:57 0° 47° (NE) 2,712 7.8 -19.9°
